Weather reports worldwide

Advertisment
Ronchi Dei Legionari, Italy (16108): temperature & dewpoint: 15.05.2019 13:00:00 - 21.05.2019 13:00:00 (CEST)Ronchi Dei Legionari, Italy (16108): wind speed: 15.05.2019 13:00:00 - 21.05.2019 13:00:00 (CEST)Ronchi Dei Legionari, Italy (16108): wind direction: 15.05.2019 13:00:00 - 21.05.2019 13:00:00 (CEST)Ronchi Dei Legionari, Italy (16108): reduced air pressure: 15.05.2019 13:00:00 - 21.05.2019 13:00:00 (CEST)Ronchi Dei Legionari, Italy (16108): visibility: 15.05.2019 13:00:00 - 21.05.2019 13:00:00 (CEST)Ronchi Dei Legionari, Italy (16108): precipitation: 15.05.2019 13:00:00 - 21.05.2019 13:00:00 (CEST)
Date & Time tt [°C] td [°C] ff [km/h] ff [kn] dd ppp [hPa] vv [km] rr [mm]
21.05.2019 13:00:00 15,0 13,0 15 8 SE - 10 -
21.05.2019 12:00:00 15,0 13,0 18 10 SSE - 8 -
21.05.2019 11:00:00 14,2 13,3 15 8 ESE 1009,7 6 0,0
21.05.2019 10:00:00 14,0 13,0 9 5 ESE - 10 -
21.05.2019 09:00:00 13,0 13,0 9 5 SSE - 2,5 -
21.05.2019 08:00:00 13,6 12,6 11 6 SSW 1008,3 7 -
21.05.2019 07:00:00 13,0 13,0 5 3 SE - 5 -
21.05.2019 06:00:00 13,0 13,0 4 2 - - 9 -
21.05.2019 05:00:00 13,8 12,9 9 5 S 1007,4 8 0,0
21.05.2019 04:00:00 14,0 13,0 9 5 SSE - 10 -
21.05.2019 03:00:00 14,0 13,0 11 6 SE - 10 -
21.05.2019 02:00:00 13,8 12,7 15 8 SE 1007,5 10 -
21.05.2019 01:00:00 14,0 13,0 15 8 SE - 10 -
21.05.2019 00:00:00 14,0 13,0 16 9 ESE - 9 -
20.05.2019 23:00:00 13,7 13,0 11 6 SE 1007,8 8 0,0
20.05.2019 22:00:00 14,0 13,0 9 5 SE - 8 -
20.05.2019 21:00:00 15,0 13,0 15 8 SSE - 10 -
20.05.2019 20:00:00 15,1 12,3 16 9 S 1007,2 9 -
20.05.2019 19:00:00 15,0 12,0 8 4 S - 7 -
20.05.2019 18:00:00 16,0 11,0 15 8 S - 10 -
20.05.2019 17:00:00 16,4 11,3 18 10 S 1006,8 10 0,0
20.05.2019 16:00:00 16,0 13,0 18 10 S - 10 -
20.05.2019 15:00:00 16,0 13,0 26 14 SSW - 10 -
20.05.2019 14:00:00 16,1 12,9 28 15 SSW 1006,3 10 -
20.05.2019 13:00:00 16,0 13,0 24 13 SSW - 10 -
20.05.2019 12:00:00 16,0 14,0 13 7 S - 10 -
20.05.2019 11:00:00 14,6 14,1 8 4 SE 1005,0 10 0,0
20.05.2019 10:00:00 14,0 14,0 15 8 SE - 6 -
20.05.2019 09:00:00 15,0 14,0 8 4 SSE - 8 -
20.05.2019 08:00:00 14,2 13,6 5 3 SSE 1003,9 8 -
20.05.2019 07:00:00 13,0 13,0 4 2 ESE - 10 -
20.05.2019 06:00:00 13,0 13,0 5 3 ESE - 10 -
20.05.2019 05:00:00 13,1 12,8 4 2 ENE 1003,7 10 0,0
20.05.2019 04:00:00 13,0 13,0 2 1 - - 7 -
20.05.2019 03:00:00 13,0 13,0 5 3 E - 10 -
20.05.2019 02:00:00 13,2 12,9 4 2 N 1004,5 8 -
20.05.2019 01:00:00 13,0 13,0 4 2 SSE - 9 -
20.05.2019 00:00:00 13,0 13,0 4 2 N - 9 -
19.05.2019 23:00:00 13,4 13,1 5 3 NNE 1004,8 8 0,0
19.05.2019 22:00:00 14,0 14,0 2 1 SW - 5 -
19.05.2019 21:00:00 15,0 14,0 4 2 - - 10 -
19.05.2019 20:00:00 15,2 14,3 4 2 - 1004,9 10 -
19.05.2019 19:00:00 15,0 14,0 8 4 NE - 10 -
19.05.2019 18:00:00 15,0 13,0 9 5 NE - 8 -
19.05.2019 17:00:00 14,7 14,1 8 4 E 1005,4 5 0,0
19.05.2019 16:00:00 16,0 15,0 5 3 NNE - 5 -
19.05.2019 15:00:00 16,0 15,0 8 4 N - 5 -
19.05.2019 14:00:00 15,9 13,5 2 1 - 1005,2 10 -
19.05.2019 13:00:00 15,0 14,0 4 2 - - 4,0 -
19.05.2019 12:00:00 16,0 14,0 5 3 E - 5 -
19.05.2019 11:00:00 15,8 13,8 4 2 N 1005,7 7 0,0
19.05.2019 10:00:00 16,0 14,0 0 0 N - 10 -
19.05.2019 09:00:00 16,0 14,0 5 3 E - 10 -
19.05.2019 08:00:00 14,9 13,5 4 2 - 1005,8 10 -
19.05.2019 07:00:00 14,0 13,0 5 3 NNE - 7 -
19.05.2019 06:00:00 14,0 13,0 5 3 NNE - 10 -
19.05.2019 05:00:00 13,5 13,1 8 4 NNE 1005,9 8 0,0
19.05.2019 04:00:00 14,0 13,0 5 3 N - 10 -
19.05.2019 03:00:00 14,0 13,0 5 3 NNE - 10 -
19.05.2019 02:00:00 13,9 13,0 4 2 - 1007,0 10 -
19.05.2019 01:00:00 14,0 13,0 5 3 ENE - 10 -
19.05.2019 00:00:00 14,0 13,0 8 4 NNE - 10 -
18.05.2019 23:00:00 13,8 13,2 9 5 NE 1008,3 6 0,0
18.05.2019 22:00:00 14,0 13,0 8 4 ENE - 10 -
18.05.2019 21:00:00 15,0 13,0 9 5 NE - 10 -
18.05.2019 20:00:00 14,4 13,5 11 6 NNE 1007,9 10 -
18.05.2019 19:00:00 15,0 14,0 13 7 N - 7 -
18.05.2019 18:00:00 15,0 14,0 5 3 NE - 5 -
18.05.2019 17:00:00 14,9 13,3 11 6 ESE 1008,2 6 0,0
18.05.2019 16:00:00 16,0 13,0 4 2 - - 10 -
18.05.2019 15:00:00 18,0 12,0 9 5 NNE - 10 -
18.05.2019 14:00:00 17,2 11,3 11 6 E 1007,8 10 -
18.05.2019 13:00:00 19,0 11,0 9 5 E - 10 -
18.05.2019 12:00:00 18,0 11,0 8 4 N - 10 -
18.05.2019 11:00:00 17,1 10,7 13 7 NNE 1008,3 10 0,0
18.05.2019 10:00:00 15,0 11,0 8 4 N - 10 -
18.05.2019 09:00:00 15,0 10,0 9 5 E - 10 -
18.05.2019 08:00:00 14,6 9,3 4 2 - 1008,0 10 -
18.05.2019 07:00:00 12,0 10,0 5 3 NE - 10 -
18.05.2019 06:00:00 11,0 10,0 2 1 - - 10 -
18.05.2019 05:00:00 11,2 9,6 2 1 - 1008,1 10 0,0
18.05.2019 04:00:00 11,0 10,0 5 3 NE - 10 -
18.05.2019 03:00:00 10,0 9,0 4 2 - - 10 -
18.05.2019 02:00:00 10,7 8,4 2 1 - 1009,2 10 -
18.05.2019 01:00:00 10,0 9,0 5 3 NNE - 10 -
18.05.2019 00:00:00 11,0 10,0 4 2 - - 10 -
17.05.2019 23:00:00 12,1 9,7 8 4 E 1010,2 10 0,0
17.05.2019 22:00:00 13,0 9,0 2 1 - - 10 -
17.05.2019 21:00:00 15,0 9,0 5 3 WSW - 10 -
17.05.2019 20:00:00 17,2 9,4 5 3 SW 1009,3 10 -
17.05.2019 19:00:00 19,0 9,0 4 2 - - 10 -
17.05.2019 18:00:00 19,0 9,0 8 4 SW - 10 -
17.05.2019 17:00:00 18,4 9,1 9 5 SSW 1010,2 10 0,0
17.05.2019 16:00:00 18,0 10,0 11 6 SSW - 10 -
17.05.2019 15:00:00 18,0 9,0 16 9 SW - 10 -
17.05.2019 14:00:00 18,7 8,9 15 8 SW 1010,6 10 -
17.05.2019 13:00:00 19,0 8,0 11 6 S - 10 -
17.05.2019 12:00:00 18,0 8,0 9 5 S - 10 -
17.05.2019 11:00:00 17,8 7,4 9 5 S 1010,9 10 0,0
17.05.2019 10:00:00 16,0 7,0 5 3 - - 10 -
17.05.2019 09:00:00 15,0 7,0 4 2 - - 10 -
17.05.2019 08:00:00 13,3 7,7 4 2 - 1011,3 10 -
17.05.2019 07:00:00 11,0 8,0 2 1 - - 10 -
17.05.2019 06:00:00 9,0 7,0 4 2 - - 10 -
17.05.2019 05:00:00 7,7 6,5 4 2 NW 1010,9 10 0,0
17.05.2019 04:00:00 10,0 8,0 4 2 WNW - 10 -
17.05.2019 03:00:00 10,0 8,0 2 1 - - 10 -
17.05.2019 02:00:00 9,8 6,1 5 3 ENE 1011,7 10 -
17.05.2019 01:00:00 10,0 6,0 8 4 ESE - 10 -
17.05.2019 00:00:00 12,0 7,0 4 2 - - 10 -
16.05.2019 23:00:00 12,9 6,2 9 5 ESE 1012,2 10 0,0
16.05.2019 22:00:00 13,0 9,0 9 5 E - 10 -
16.05.2019 21:00:00 15,0 9,0 11 6 SSE - 10 -
16.05.2019 20:00:00 16,1 10,4 9 5 SSE 1011,2 10 -
16.05.2019 19:00:00 18,0 9,0 9 5 S - 10 -
16.05.2019 18:00:00 19,0 7,0 5 3 S - 10 -
16.05.2019 17:00:00 18,4 6,2 5 3 - 1010,6 10 0,0
16.05.2019 16:00:00 18,0 7,0 8 4 S - 10 -
16.05.2019 15:00:00 18,0 7,0 5 3 S - 10 -
16.05.2019 14:00:00 18,3 6,8 5 3 S 1011,8 10 -
16.05.2019 13:00:00 19,0 7,0 11 6 ENE - 10 -
16.05.2019 12:00:00 17,0 5,0 18 10 E - 10 -
16.05.2019 11:00:00 17,0 5,8 13 7 ENE 1012,9 10 0,0
16.05.2019 10:00:00 15,0 7,0 8 4 NNE - 10 -
16.05.2019 09:00:00 13,0 7,0 8 4 N - 10 -
16.05.2019 08:00:00 12,1 6,8 5 3 N 1013,7 10 -
16.05.2019 07:00:00 10,0 7,0 5 3 N - 10 -
16.05.2019 06:00:00 9,0 6,0 2 1 - - 10 -
16.05.2019 05:00:00 9,5 6,6 8 4 NNE 1013,3 10 0,0
16.05.2019 04:00:00 10,0 8,0 4 2 NNE - 10 -
16.05.2019 03:00:00 10,0 8,0 5 3 N - 10 -
16.05.2019 02:00:00 10,7 7,8 2 1 - 1014,8 10 -
16.05.2019 01:00:00 11,0 8,0 4 2 SE - 10 -
16.05.2019 00:00:00 19,0 16,0 8 4 ENE - 10 -
15.05.2019 23:00:00 11,2 7,9 2 1 - 1014,7 10 0,0
15.05.2019 22:00:00 12,0 7,0 2 1 - - 10 -
15.05.2019 21:00:00 13,0 7,0 13 7 ESE - 10 -
15.05.2019 20:00:00 14,2 7,6 13 7 SSE 1013,8 10 -
15.05.2019 19:00:00 15,0 6,0 15 8 ESE - 10 -
15.05.2019 18:00:00 27,0 18,0 8 4 S - 10 -
15.05.2019 17:00:00 15,3 7,4 5 3 NNE 1013,8 10 0,0
15.05.2019 16:00:00 13,0 8,0 9 5 NNE - 10 -
15.05.2019 15:00:00 12,0 7,0 13 7 N - 10 -
15.05.2019 14:00:00 11,9 6,8 11 6 N 1014,7 10 -
15.05.2019 13:00:00 11,0 6,0 8 4 N - 10 -

tt = temperature
td = dewpoint
ff = wind speed
dd = wind direction
ppp = reduced air pressure
vv = visibility
rr = precipitation

Next stations